TimeCST,TemperatureF,Dew PointF,Humidity,Sea Level PressureIn,VisibilityMPH,Wind Direction,Wind SpeedMPH,Gust SpeedMPH,PrecipitationIn,Events,Conditions,WindDirDegrees,DateUTC
12:15 AM,19.4,17.6,93,29.91,10.0,WNW,19.6,23.0,N/A,,Overcast,300,2012-11-25 06:15:00
12:35 AM,19.4,17.6,93,29.91,10.0,WNW,20.7,25.3,N/A,,Overcast,300,2012-11-25 06:35:00
12:55 AM,21.2,17.6,86,29.90,10.0,WNW,17.3,23.0,N/A,,Overcast,290,2012-11-25 06:55:00
1:15 AM,21.2,19.4,93,29.91,10.0,WNW,21.9,-,N/A,,Overcast,300,2012-11-25 07:15:00
1:35 AM,23.0,19.4,86,29.90,10.0,WNW,17.3,-,N/A,,Overcast,300,2012-11-25 07:35:00
1:55 AM,23.0,19.4,86,29.90,10.0,WNW,16.1,-,N/A,,Overcast,290,2012-11-25 07:55:00
2:35 AM,23.0,21.2,93,29.89,10.0,West,11.5,-,N/A,,Overcast,270,2012-11-25 08:35:00
2:55 AM,24.8,21.2,86,29.89,10.0,WSW,11.5,-,N/A,,Overcast,250,2012-11-25 08:55:00
3:15 AM,24.8,23.0,93,29.88,10.0,WSW,12.7,-,N/A,,Overcast,250,2012-11-25 09:15:00
3:35 AM,24.8,23.0,93,29.88,10.0,WSW,15.0,-,N/A,,Overcast,250,2012-11-25 09:35:00
3:55 AM,24.8,23.0,93,29.88,10.0,West,15.0,-,N/A,,Overcast,260,2012-11-25 09:55:00
4:15 AM,24.8,23.0,93,29.88,10.0,WSW,13.8,-,N/A,,Overcast,250,2012-11-25 10:15:00
4:35 AM,24.8,23.0,93,29.87,10.0,West,13.8,-,N/A,,Overcast,260,2012-11-25 10:35:00
4:55 AM,24.8,23.0,93,29.87,10.0,West,12.7,-,N/A,,Overcast,260,2012-11-25 10:55:00
5:15 AM,24.8,23.0,93,29.88,10.0,West,13.8,-,N/A,,Overcast,270,2012-11-25 11:15:00
5:35 AM,24.8,23.0,93,29.88,10.0,West,12.7,-,N/A,,Mostly Cloudy,270,2012-11-25 11:35:00
5:55 AM,26.6,23.0,86,29.89,10.0,WNW,17.3,-,N/A,,Overcast,290,2012-11-25 11:55:00
6:15 AM,26.6,23.0,86,29.89,10.0,WNW,21.9,25.3,N/A,,Overcast,290,2012-11-25 12:15:00
6:35 AM,26.6,19.4,74,29.89,10.0,WNW,25.3,28.8,N/A,,Overcast,300,2012-11-25 12:35:00
6:55 AM,24.8,19.4,80,29.91,10.0,WNW,21.9,33.4,N/A,,Overcast,300,2012-11-25 12:55:00
7:15 AM,24.8,17.6,74,29.92,10.0,NW,19.6,25.3,N/A,,Overcast,320,2012-11-25 13:15:00
7:35 AM,24.8,17.6,74,29.92,10.0,NW,16.1,-,N/A,,Overcast,320,2012-11-25 13:35:00
7:55 AM,24.8,17.6,74,29.93,10.0,NW,13.8,-,N/A,,Overcast,310,2012-11-25 13:55:00
8:15 AM,23.0,17.6,80,29.93,10.0,NW,15.0,23.0,N/A,,Overcast,310,2012-11-25 14:15:00
8:35 AM,23.0,17.6,80,29.94,10.0,NW,18.4,-,N/A,,Overcast,310,2012-11-25 14:35:00
8:55 AM,23.0,15.8,74,29.95,10.0,NW,16.1,26.5,N/A,,Overcast,320,2012-11-25 14:55:00
9:15 AM,23.0,17.6,80,29.96,10.0,NW,18.4,24.2,N/A,,Overcast,310,2012-11-25 15:15:00
9:35 AM,21.2,15.8,80,29.97,10.0,NNW,26.5,32.2,N/A,,Overcast,330,2012-11-25 15:35:00
9:55 AM,17.6,10.4,73,29.99,9.0,NNW,25.3,31.1,N/A,Snow,Light Snow,330,2012-11-25 15:55:00
10:15 AM,17.6,10.4,73,30.00,10.0,NNW,23.0,31.1,N/A,Snow,Light Snow,340,2012-11-25 16:15:00
10:35 AM,17.6,10.4,73,30.02,10.0,NNW,21.9,25.3,N/A,Snow,Light Snow,340,2012-11-25 16:35:00
10:55 AM,15.8,8.6,73,30.04,10.0,NNW,18.4,25.3,N/A,Snow,Light Snow,330,2012-11-25 16:55:00
11:15 AM,15.8,8.6,73,30.04,10.0,NW,20.7,27.6,N/A,Snow,Light Snow,320,2012-11-25 17:15:00
11:35 AM,15.8,6.8,68,30.04,10.0,NNW,19.6,-,N/A,,Overcast,330,2012-11-25 17:35:00
11:55 AM,15.8,6.8,68,30.04,10.0,NW,19.6,-,N/A,,Overcast,320,2012-11-25 17:55:00
12:15 PM,15.8,6.8,68,30.05,10.0,NNW,17.3,23.0,N/A,,Overcast,330,2012-11-25 18:15:00
12:35 PM,15.8,5.0,62,30.05,10.0,NNW,18.4,23.0,N/A,,Overcast,330,2012-11-25 18:35:00
12:55 PM,14.0,5.0,67,30.06,10.0,NNW,15.0,-,N/A,,Overcast,340,2012-11-25 18:55:00
1:15 PM,14.0,5.0,67,30.06,10.0,NNW,18.4,-,N/A,,Overcast,340,2012-11-25 19:15:00
1:35 PM,14.0,3.2,62,30.07,10.0,NNW,15.0,-,N/A,,Overcast,330,2012-11-25 19:35:00
1:55 PM,12.2,1.4,62,30.07,10.0,NW,18.4,-,N/A,,Scattered Clouds,310,2012-11-25 19:55:00
2:15 PM,14.0,3.2,62,30.07,10.0,NW,18.4,-,N/A,,Clear,310,2012-11-25 20:15:00
2:35 PM,14.0,5.0,67,30.07,10.0,NW,19.6,-,N/A,,Mostly Cloudy,320,2012-11-25 20:35:00
2:55 PM,12.2,5.0,73,30.08,10.0,NW,18.4,-,N/A,,Overcast,320,2012-11-25 20:55:00
3:15 PM,10.4,5.0,79,30.09,10.0,NW,18.4,23.0,N/A,,Overcast,320,2012-11-25 21:15:00
3:35 PM,10.4,5.0,79,30.10,10.0,NW,16.1,-,N/A,,Mostly Cloudy,320,2012-11-25 21:35:00
3:55 PM,10.4,5.0,79,30.11,10.0,NW,12.7,-,N/A,,Mostly Cloudy,320,2012-11-25 21:55:00
4:15 PM,10.4,5.0,79,30.12,10.0,NNW,10.4,-,N/A,,Overcast,330,2012-11-25 22:15:00
4:35 PM,8.6,3.2,79,30.13,10.0,NW,12.7,-,N/A,,Mostly Cloudy,320,2012-11-25 22:35:00
4:55 PM,8.6,1.4,73,30.14,10.0,NW,11.5,-,N/A,,Partly Cloudy,320,2012-11-25 22:55:00
5:15 PM,6.8,1.4,79,30.15,10.0,NW,9.2,-,N/A,,Clear,320,2012-11-25 23:15:00
5:35 PM,5.0,-0.4,78,30.16,10.0,NW,9.2,-,N/A,,Clear,320,2012-11-25 23:35:00
5:55 PM,5.0,-0.4,78,30.17,10.0,WNW,8.1,-,N/A,,Clear,300,2012-11-25 23:55:00
6:15 PM,5.0,-0.4,78,30.18,10.0,NW,10.4,-,N/A,,Clear,310,2012-11-26 00:15:00
6:35 PM,3.2,-0.4,85,30.19,10.0,NW,10.4,-,N/A,,Clear,310,2012-11-26 00:35:00
6:55 PM,5.0,-0.4,78,30.20,10.0,NW,10.4,-,N/A,,Clear,310,2012-11-26 00:55:00
7:15 PM,3.2,-0.4,85,30.21,10.0,NW,10.4,-,N/A,,Clear,310,2012-11-26 01:15:00
7:35 PM,3.2,-0.4,85,30.22,10.0,NW,9.2,-,N/A,,Clear,310,2012-11-26 01:35:00
7:55 PM,1.4,-2.2,85,30.23,10.0,WNW,9.2,-,N/A,,Clear,300,2012-11-26 01:55:00
8:15 PM,1.4,-2.2,85,30.23,10.0,NW,9.2,-,N/A,,Clear,320,2012-11-26 02:15:00
8:35 PM,1.4,-2.2,85,30.24,10.0,NW,9.2,-,N/A,,Clear,310,2012-11-26 02:35:00
8:55 PM,-0.4,-2.2,92,30.25,10.0,NW,9.2,-,N/A,,Clear,320,2012-11-26 02:55:00
9:15 PM,1.4,-2.2,85,30.25,10.0,NW,10.4,-,N/A,,Clear,320,2012-11-26 03:15:00
9:35 PM,1.4,-2.2,85,30.26,10.0,NW,11.5,-,N/A,,Clear,310,2012-11-26 03:35:00
9:55 PM,-0.4,-2.2,92,30.26,10.0,NW,10.4,-,N/A,,Clear,320,2012-11-26 03:55:00
10:15 PM,-0.4,-4.0,85,30.27,10.0,NW,8.1,-,N/A,,Clear,310,2012-11-26 04:15:00
10:35 PM,-0.4,-4.0,85,30.28,10.0,WNW,4.6,-,N/A,,Clear,290,2012-11-26 04:35:00
10:55 PM,-2.2,-4.0,92,30.28,10.0,WNW,6.9,-,N/A,,Clear,300,2012-11-26 04:55:00
11:15 PM,-0.4,-4.0,85,30.29,10.0,NW,10.4,-,N/A,,Clear,310,2012-11-26 05:15:00
11:35 PM,-0.4,-4.0,85,30.29,10.0,NW,10.4,-,N/A,,Clear,310,2012-11-26 05:35:00
11:55 PM,-0.4,-4.0,85,30.29,10.0,WNW,6.9,-,N/A,,Clear,300,2012-11-26 05:55:00